Weather History for Dublin, GA

Change the Weather History Date:

Monday, April 21, 2014

  Actual Average Record
Temperature  
Mean Temperature 63 °F -  
Max Temperature 78 °F 80 °F 91 °F (1968)
Min Temperature 48 °F 51 °F 30 °F (1983)
Degree Days  
Heating Degree Days 2    
Growing Degree Days 13 (Base 50)    
Moisture  
Dew Point 49 °F    
Average Humidity 68    
Maximum Humidity 100    
Minimum Humidity 30    
Precipitation  
Precipitation 0.00 in - - ()
Sea Level Pressure  
Sea Level Pressure 30.10 in    
Wind  
Wind Speed 2 mph (NNE)    
Max Wind Speed 7 mph    
Max Gust Speed -    
Visibility 10 miles    
Events      
Averages and records for this station are not official NWS values.
T = Trace of Precipitation, MM = Missing Value Source: NWS Daily Summary

Daily Weather History Graph

Daily Weather History Graph

Search for Another Location

Airport:

Trip Planner

Search our weather history database for the weather conditions in past years. The results will help you decide how hot, cold, wet, or windy it might be!

Date:

Astronomy

Apr. 21, 2014 Rise Set
Actual Time 6:55 AM EDT 8:06 PM EDT
Civil Twilight 6:30 AM EDT 8:31 PM EDT
Nautical Twilight 5:59 AM EDT 9:02 PM EDT
Astronomical Twilight 5:28 AM EDT 9:33 PM EDT
Moon 1:30 AM EDT (4/21) 12:25 PM EDT (4/21)
Length of Visible Light 14h 01m
Length of Day
13h 10m
Waning Gibbous, 58% of the Moon is Illuminated
Apr 21
Waning Gibbous
Apr 22
Last Quarter
Apr 29
New
May 6
First Quarter
May 14
Full

Hourly Weather History & Observations

Time (EDT) Temp. Dew Point Humidity Pressure Visibility Wind Dir Wind Speed Gust Speed Precip Events Conditions
12:15 AM 53.6 °F 51.8 °F 94% 30.17 in 10.0 mi Calm Calm - N/A   Clear
12:35 AM 51.8 °F 51.8 °F 100% 30.17 in 10.0 mi Calm Calm - N/A   Clear
12:55 AM 51.8 °F 51.8 °F 100% 30.17 in 10.0 mi Calm Calm - N/A   Clear
1:15 AM 51.8 °F 50.0 °F 94% 30.17 in 10.0 mi Calm Calm - N/A   Clear
1:35 AM 51.8 °F 50.0 °F 94% 30.17 in 10.0 mi Calm Calm - N/A   Clear
1:55 AM 50.0 °F 50.0 °F 100% 30.16 in 10.0 mi Calm Calm - N/A   Clear
2:15 AM 50.0 °F 50.0 °F 100% 30.16 in 10.0 mi Calm Calm - N/A   Clear
2:35 AM 50.0 °F 50.0 °F 100% 30.15 in 10.0 mi Calm Calm - N/A   Clear
2:55 AM 50.0 °F 48.2 °F 94% 30.15 in 10.0 mi Calm Calm - N/A   Clear
3:15 AM 50.0 °F 48.2 °F 94% 30.15 in 10.0 mi Calm Calm - N/A   Clear
3:35 AM 48.2 °F 48.2 °F 100% 30.14 in 10.0 mi Calm Calm - N/A   Clear
3:55 AM 48.2 °F 46.4 °F 93% 30.15 in 10.0 mi Calm Calm - N/A   Clear
4:15 AM 48.2 °F 46.4 °F 93% 30.14 in 10.0 mi Calm Calm - N/A   Clear
4:35 AM 50.0 °F 48.2 °F 94% 30.14 in 10.0 mi NNW 4.6 mph - N/A   Clear
4:55 AM 50.0 °F 46.4 °F 87% 30.14 in 10.0 mi Calm Calm - N/A   Clear
5:15 AM 50.0 °F 46.4 °F 87% 30.15 in 10.0 mi Calm Calm - N/A   Clear
5:35 AM 50.0 °F 46.4 °F 87% 30.15 in 10.0 mi Calm Calm - N/A   Clear
5:55 AM 50.0 °F 46.4 °F 87% 30.15 in 10.0 mi NNW 3.5 mph - N/A   Clear
6:15 AM 50.0 °F 46.4 °F 87% 30.15 in 10.0 mi North 4.6 mph - N/A   Clear
6:35 AM 50.0 °F 46.4 °F 87% 30.16 in 10.0 mi NNW 3.5 mph - N/A   Clear
6:55 AM 50.0 °F 46.4 °F 87% 30.16 in 10.0 mi Calm Calm - N/A   Clear
7:15 AM 50.0 °F 46.4 °F 87% 30.17 in 10.0 mi Calm Calm - N/A   Clear
7:35 AM 51.8 °F 46.4 °F 82% 30.18 in 10.0 mi Calm Calm - N/A   Clear
7:55 AM 53.6 °F 46.4 °F 77% 30.19 in 10.0 mi North 3.5 mph - N/A   Clear
8:15 AM 53.6 °F 46.4 °F 77% 30.19 in 10.0 mi North 4.6 mph - N/A   Clear
8:35 AM 55.4 °F 46.4 °F 72% 30.19 in 10.0 mi NE 5.8 mph - N/A   Clear
8:55 AM 59.0 °F 50.0 °F 72% 30.18 in 10.0 mi NE 6.9 mph - N/A   Clear
9:15 AM 60.8 °F 48.2 °F 63% 30.19 in 10.0 mi NE 5.8 mph - N/A   Clear
9:35 AM 62.6 °F 48.2 °F 59% 30.19 in 10.0 mi NE 4.6 mph - N/A   Clear
9:55 AM 62.6 °F 48.2 °F 59% 30.18 in 10.0 mi NE 6.9 mph - N/A   Clear
10:15 AM 64.4 °F 48.2 °F 56% 30.18 in 10.0 mi NE 6.9 mph - N/A   Clear
10:35 AM 66.2 °F 48.2 °F 52% 30.18 in 10.0 mi ENE 4.6 mph - N/A   Clear
10:55 AM 68.0 °F 46.4 °F 46% 30.18 in 10.0 mi NNE 6.9 mph - N/A   Scattered Clouds
11:15 AM 69.8 °F 48.2 °F 46% 30.18 in 10.0 mi NNE 6.9 mph - N/A   Clear
11:35 AM 69.8 °F 50.0 °F 49% 30.17 in 10.0 mi ENE 6.9 mph - N/A   Clear
11:55 AM 71.6 °F 50.0 °F 46% 30.17 in 10.0 mi North 6.9 mph - N/A   Clear
12:15 PM 71.6 °F 48.2 °F 43% 30.16 in 10.0 mi NNE 4.6 mph - N/A   Clear
12:35 PM 71.6 °F 48.2 °F 43% 30.14 in 10.0 mi NNE 4.6 mph - N/A   Clear
12:55 PM 73.4 °F 46.4 °F 38% 30.14 in 10.0 mi East 5.8 mph - N/A   Clear
1:15 PM 73.4 °F 46.4 °F 38% 30.12 in 10.0 mi NW 3.5 mph - N/A   Clear
1:35 PM 75.2 °F 44.6 °F 34% 30.11 in 10.0 mi NE 5.8 mph - N/A   Scattered Clouds
1:55 PM 75.2 °F 46.4 °F 36% 30.10 in 10.0 mi East 4.6 mph - N/A   Clear
2:15 PM 77.0 °F 46.4 °F 34% 30.09 in 10.0 mi Calm Calm - N/A   Clear
2:35 PM 77.0 °F 46.4 °F 34% 30.08 in 10.0 mi Calm Calm - N/A   Clear
2:55 PM 77.0 °F 44.6 °F 32% 30.07 in 10.0 mi North 5.8 mph - N/A   Clear
3:15 PM 77.0 °F 44.6 °F 32% 30.06 in 10.0 mi NNW 4.6 mph - N/A   Clear
3:35 PM 78.8 °F 46.4 °F 32% 30.05 in 10.0 mi NW 5.8 mph - N/A   Clear
3:55 PM 78.8 °F 46.4 °F 32% 30.04 in 10.0 mi East 4.6 mph - N/A   Clear
4:15 PM 78.8 °F 44.6 °F 30% 30.03 in 10.0 mi NNE 6.9 mph - N/A   Clear
4:35 PM 78.8 °F 44.6 °F 30% 30.03 in 10.0 mi NNW 5.8 mph - N/A   Clear
4:55 PM 78.8 °F 44.6 °F 30% 30.03 in 10.0 mi Calm Calm - N/A   Clear
5:15 PM 78.8 °F 44.6 °F 30% 30.02 in 10.0 mi NNW 4.6 mph - N/A   Clear
5:35 PM 78.8 °F 46.4 °F 32% 30.02 in 10.0 mi NNW 3.5 mph - N/A   Clear
5:55 PM 78.8 °F 46.4 °F 32% 30.01 in 10.0 mi WNW 3.5 mph - N/A   Clear
6:15 PM 78.8 °F 46.4 °F 32% 30.01 in 10.0 mi WNW 3.5 mph - N/A   Clear
6:35 PM 78.8 °F 46.4 °F 32% 30.01 in 10.0 mi Calm Calm - N/A   Clear
6:55 PM 77.0 °F 46.4 °F 34% 30.01 in 10.0 mi Calm Calm - N/A   Clear
7:15 PM 77.0 °F 44.6 °F 32% 30.01 in 10.0 mi Calm Calm - N/A   Clear
7:35 PM 73.4 °F 53.6 °F 50% 30.01 in 10.0 mi Calm Calm - N/A   Clear
7:55 PM 69.8 °F 59.0 °F 68% 30.00 in 10.0 mi Calm Calm - N/A   Clear
8:15 PM 66.2 °F 59.0 °F 78% 30.00 in 10.0 mi Calm Calm - N/A   Clear
8:35 PM 62.6 °F 59.0 °F 88% 30.00 in 10.0 mi Calm Calm - N/A   Clear
8:55 PM 60.8 °F 59.0 °F 94% 30.01 in 10.0 mi Calm Calm - N/A   Clear
9:15 PM 60.8 °F 59.0 °F 94% 30.01 in 10.0 mi Calm Calm - N/A   Clear
9:35 PM 59.0 °F 57.2 °F 94% 30.01 in 10.0 mi Calm Calm - N/A   Clear
9:55 PM 59.0 °F 55.4 °F 88% 30.01 in 10.0 mi Calm Calm - N/A   Clear
10:15 PM 59.0 °F 55.4 °F 88% 30.01 in 10.0 mi Calm Calm - N/A   Clear
10:35 PM 57.2 °F 55.4 °F 94% 30.01 in 10.0 mi Calm Calm - N/A   Clear
10:55 PM 57.2 °F 55.4 °F 94% 30.00 in 10.0 mi Calm Calm - N/A   Clear
11:15 PM 55.4 °F 55.4 °F 100% 30.01 in 10.0 mi Calm Calm - N/A   Clear
11:35 PM 55.4 °F 53.6 °F 94% 30.00 in 10.0 mi Calm Calm - N/A   Clear
11:55 PM 55.4 °F 53.6 °F 94% 30.00 in 10.0 mi Calm Calm - N/A   Clear